When you browse on this site, cookies collect data to enhance your experience and personalize the content and advertising you see.
Visit our Privacy Policy to learn more. By continuing to use the site, you agree to this use of cookies and data.
  • In United Kingdom
  • List of Countries
  • For 7 days
  • Water Temperature
  • Satellite Maps
  • Weather Map
  • Weather Widgets
  • user-avatar
    Login

    Hourly Weather Sacapa

    Today, 26 April, Friday

    Time Temperature Precipitation Wind Pressure Humidity
    00:00 +22°C° 0 mm 0 mps 697 mmHg 79%
    01:00 +22°C° 0 mm 0 mps 697 mmHg 81%
    02:00 +22°C° 0 mm 0 mps 697 mmHg 83%
    03:00 +21°C° 0 mm 0 mps 697 mmHg 85%
    04:00 +21°C° 0.1 mm 0 mps 697 mmHg 86%
    05:00 +21°C° 0.1 mm 0 mps 697 mmHg 86%
    06:00 +23°C° 0.1 mm 1 mps 697 mmHg 87%
    07:00 +26°C° 0 mm 1 mps 698 mmHg 73%
    08:00 +29°C° 0 mm 1 mps 699 mmHg 60%
    09:00 +31°C° 0 mm 1 mps 699 mmHg 47%
    10:00 +34°C° 0 mm 2 mps 699 mmHg 42%
    11:00 +35°C° 0 mm 2 mps 699 mmHg 37%
    12:00 +37°C° 0 mm 3 mps 699 mmHg 32%
    13:00 +36°C° 0 mm 3 mps 698 mmHg 31%
    14:00 +36°C° 0 mm 3 mps 698 mmHg 31%
    15:00 +36°C° 0 mm 3 mps 697 mmHg 31%
    16:00 +35°C° 0 mm 3 mps 697 mmHg 37%
    17:00 +33°C° 0 mm 3 mps 697 mmHg 43%
    18:00 +30°C° 0 mm 2 mps 697 mmHg 49%
    19:00 +29°C° 0.1 mm 2 mps 697 mmHg 57%
    20:00 +27°C° 0.1 mm 2 mps 698 mmHg 65%
    21:00 +26°C° 0.1 mm 1 mps 698 mmHg 73%
    22:00 +25°C° 0.1 mm 1 mps 698 mmHg 75%
    23:00 +25°C° 0.1 mm 1 mps 698 mmHg 78%

    Tomorrow, 27 April, Saturday

    Time Temperature Precipitation Wind Pressure Humidity
    00:00 +24°C° 0.1 mm 1 mps 698 mmHg 80%
    01:00 +24°C° 0.1 mm 1 mps 697 mmHg 82%
    02:00 +24°C° 0.1 mm 1 mps 697 mmHg 83%
    03:00 +23°C° 0.1 mm 1 mps 697 mmHg 84%
    04:00 +23°C° 0.1 mm 1 mps 697 mmHg 85%
    05:00 +23°C° 0.1 mm 1 mps 697 mmHg 86%
    06:00 +23°C° 0.1 mm 1 mps 697 mmHg 87%
    07:00 +25°C° 0 mm 1 mps 698 mmHg 77%
    08:00 +27°C° 0 mm 1 mps 698 mmHg 67%
    09:00 +29°C° 0 mm 2 mps 699 mmHg 57%
    10:00 +30°C° 0 mm 2 mps 699 mmHg 52%
    11:00 +32°C° 0 mm 2 mps 698 mmHg 48%
    12:00 +34°C° 0 mm 2 mps 698 mmHg 43%
    13:00 +34°C° 0 mm 2 mps 697 mmHg 42%
    14:00 +34°C° 0 mm 3 mps 697 mmHg 41%
    15:00 +34°C° 0 mm 3 mps 696 mmHg 40%
    16:00 +33°C° 0 mm 3 mps 696 mmHg 45%
    17:00 +30°C° 0 mm 2 mps 696 mmHg 50%
    18:00 +29°C° 0 mm 2 mps 696 mmHg 55%
    19:00 +27°C° 0 mm 2 mps 696 mmHg 60%
    20:00 +26°C° 0 mm 1 mps 696 mmHg 66%
    21:00 +24°C° 0 mm 1 mps 697 mmHg 72%
    22:00 +23°C° 0 mm 1 mps 697 mmHg 74%
    23:00 +22°C° 0 mm 1 mps 697 mmHg 76%

    Day after tomorrow, 28 April, Sunday

    Time Temperature Precipitation Wind Pressure Humidity
    00:00 +20°C° 0 mm 0 mps 696 mmHg 78%
    01:00 +19°C° 0 mm 0 mps 696 mmHg 79%
    02:00 +19°C° 0 mm 0 mps 695 mmHg 79%
    03:00 +18°C° 0 mm 0 mps 695 mmHg 80%
    04:00 +18°C° 0 mm 0 mps 695 mmHg 79%
    05:00 +18°C° 0 mm 0 mps 695 mmHg 78%
    06:00 +18°C° 0 mm 0 mps 696 mmHg 77%
    07:00 +22°C° 0 mm 0 mps 697 mmHg 61%
    08:00 +26°C° 0 mm 0 mps 698 mmHg 46%
    09:00 +30°C° 0 mm 0 mps 699 mmHg 31%
    10:00 +34°C° 0 mm 1 mps 699 mmHg 26%
    11:00 +35°C° 0 mm 1 mps 698 mmHg 22%
    12:00 +38°C° 0 mm 2 mps 698 mmHg 18%
    13:00 +38°C° 0 mm 2 mps 697 mmHg 18%
    14:00 +38°C° 0 mm 2 mps 696 mmHg 18%
    15:00 +37°C° 0 mm 3 mps 695 mmHg 18%
    16:00 +35°C° 0 mm 3 mps 695 mmHg 24%
    17:00 +32°C° 0 mm 2 mps 695 mmHg 30%
    18:00 +30°C° 0 mm 2 mps 695 mmHg 35%
    19:00 +28°C° 0 mm 2 mps 695 mmHg 45%
    20:00 +26°C° 0 mm 2 mps 696 mmHg 55%
    21:00 +24°C° 0 mm 1 mps 696 mmHg 65%
    22:00 +23°C° 0 mm 1 mps 696 mmHg 71%
    23:00 +22°C° 0 mm 1 mps 696 mmHg 77%

    29 April, Monday

    Time Temperature Precipitation Wind Pressure Humidity
    00:00 +22°C° 0 mm 1 mps 696 mmHg 83%
    01:00 +22°C° 0 mm 1 mps 696 mmHg 84%
    02:00 +21°C° 0 mm 1 mps 696 mmHg 84%
    03:00 +21°C° 0 mm 1 mps 695 mmHg 85%
    04:00 +19°C° 0 mm 0 mps 695 mmHg 83%
    05:00 +19°C° 0 mm 0 mps 696 mmHg 82%
    06:00 +19°C° 0 mm 0 mps 696 mmHg 81%
    07:00 +23°C° 0 mm 0 mps 697 mmHg 68%
    08:00 +28°C° 0 mm 1 mps 698 mmHg 55%
    09:00 +32°C° 0 mm 1 mps 699 mmHg 42%
    10:00 +33°C° 0 mm 1 mps 699 mmHg 39%
    11:00 +36°C° 0 mm 2 mps 698 mmHg 35%
    12:00 +37°C° 0 mm 2 mps 698 mmHg 31%
    13:00 +37°C° 0 mm 2 mps 697 mmHg 32%
    14:00 +37°C° 0 mm 3 mps 697 mmHg 33%
    15:00 +36°C° 0 mm 3 mps 696 mmHg 34%
    16:00 +34°C° 0.1 mm 3 mps 696 mmHg 42%
    17:00 +33°C° 0.1 mm 3 mps 696 mmHg 50%
    18:00 +30°C° 0.1 mm 3 mps 696 mmHg 58%
    19:00 +28°C° 0.1 mm 3 mps 696 mmHg 67%
    20:00 +26°C° 0.1 mm 2 mps 697 mmHg 76%
    21:00 +25°C° 0.1 mm 2 mps 697 mmHg 86%
    22:00 +24°C° 0 mm 1 mps 697 mmHg 86%
    23:00 +24°C° 0 mm 1 mps 697 mmHg 86%

    30 April, Tuesday

    Time Temperature Precipitation Wind Pressure Humidity
    00:00 +24°C° 0 mm 1 mps 697 mmHg 86%
    01:00 +23°C° 0 mm 1 mps 697 mmHg 86%
    02:00 +23°C° 0 mm 1 mps 696 mmHg 86%
    03:00 +21°C° 0 mm 0 mps 696 mmHg 86%
    04:00 +21°C° 0 mm 0 mps 696 mmHg 86%
    05:00 +21°C° 0 mm 0 mps 697 mmHg 86%
    06:00 +20°C° 0 mm 0 mps 697 mmHg 86%
    07:00 +25°C° 0 mm 1 mps 698 mmHg 75%
    08:00 +28°C° 0 mm 1 mps 698 mmHg 63%
    09:00 +30°C° 0 mm 1 mps 699 mmHg 52%
    10:00 +32°C° 0 mm 2 mps 699 mmHg 46%
    11:00 +34°C° 0 mm 2 mps 698 mmHg 39%
    12:00 +36°C° 0 mm 3 mps 698 mmHg 33%
    13:00 +36°C° 0 mm 3 mps 697 mmHg 33%
    14:00 +36°C° 0 mm 3 mps 697 mmHg 33%
    15:00 +36°C° 0 mm 3 mps 696 mmHg 34%
    16:00 +34°C° 0.1 mm 3 mps 696 mmHg 43%
    17:00 +31°C° 0.1 mm 3 mps 696 mmHg 52%
    18:00 +29°C° 0.1 mm 3 mps 696 mmHg 60%
    19:00 +27°C° 0.1 mm 2 mps 697 mmHg 69%
    20:00 +26°C° 0.1 mm 2 mps 697 mmHg 77%
    21:00 +24°C° 0.1 mm 1 mps 697 mmHg 85%
    22:00 +24°C° 0 mm 1 mps 697 mmHg 85%
    23:00 +24°C° 0 mm 1 mps 697 mmHg 85%

    1 May, Wednesday

    Time Temperature Precipitation Wind Pressure Humidity
    00:00 +24°C° 0 mm 1 mps 697 mmHg 85%
    01:00 +23°C° 0 mm 1 mps 697 mmHg 86%
    02:00 +21°C° 0 mm 0 mps 696 mmHg 88%
    03:00 +21°C° 0 mm 0 mps 696 mmHg 89%
    04:00 +21°C° 0 mm 0 mps 696 mmHg 89%
    05:00 +21°C° 0 mm 0 mps 697 mmHg 89%
    06:00 +21°C° 0 mm 0 mps 697 mmHg 89%
    07:00 +25°C° 0 mm 1 mps 698 mmHg 77%
    08:00 +28°C° 0 mm 1 mps 698 mmHg 65%
    09:00 +30°C° 0 mm 1 mps 699 mmHg 53%
    10:00 +32°C° 0 mm 2 mps 699 mmHg 47%
    11:00 +34°C° 0 mm 2 mps 699 mmHg 40%
    12:00 +36°C° 0 mm 3 mps 698 mmHg 34%
    13:00 +36°C° 0 mm 3 mps 698 mmHg 34%
    14:00 +36°C° 0 mm 3 mps 697 mmHg 35%
    15:00 +35°C° 0 mm 3 mps 696 mmHg 36%
    16:00 +33°C° 0.4 mm 3 mps 696 mmHg 46%
    17:00 +30°C° 0.4 mm 3 mps 696 mmHg 55%
    18:00 +28°C° 0.4 mm 3 mps 696 mmHg 65%
    19:00 +27°C° 0.4 mm 2 mps 697 mmHg 72%
    20:00 +26°C° 0.4 mm 2 mps 697 mmHg 79%
    21:00 +24°C° 0.4 mm 1 mps 698 mmHg 85%
    22:00 +24°C° 0.2 mm 1 mps 697 mmHg 86%
    23:00 +24°C° 0.2 mm 1 mps 697 mmHg 87%
    Show more